Weather History for NW Arkansas Airport, AR

Change the Weather History Date:

Thursday, October 4, 2012

  Actual Average Record
Temperature  
Mean Temperature 66 °F -  
Max Temperature 81 °F - - ()
Min Temperature 52 °F - - ()
Cooling Degree Days 1    
Growing Degree Days 16 (Base 50)    
Moisture  
Dew Point 56 °F    
Average Humidity 70    
Maximum Humidity 100    
Minimum Humidity 42    
Precipitation  
Precipitation 0.00 in - - ()
Sea Level Pressure  
Sea Level Pressure 30.11 in    
Wind  
Wind Speed 6 mph (SSW)    
Max Wind Speed 13 mph    
Max Gust Speed -    
Visibility 10 miles    
Events      
T = Trace of Precipitation, MM = Missing Value Source: NWS Daily Summary

Daily Weather History Graph

Daily Weather History Graph

Search for Another Location

Airport:

Trip Planner

Search our weather history database for the weather conditions in past years. The results will help you decide how hot, cold, wet, or windy it might be!

Date:

Astronomy

Oct. 04, 2012 Rise Set
Actual Time 7:15 AM CDT 6:55 PM CDT
Civil Twilight 6:49 AM CDT 7:21 PM CDT
Nautical Twilight 6:19 AM CDT 7:51 PM CDT
Astronomical Twilight 5:49 AM CDT 8:20 PM CDT
Moon 9:40 PM CDT (10/4) 11:25 AM CDT (10/4)
Length of Visible Light 12h 31m
Length of Day
11h 40m
Waning Gibbous, 82% of the Moon is Illuminated
Oct 4
Waning Gibbous
Oct 8
Last Quarter
Oct 15
New
Oct 21
First Quarter
Oct 29
Full

Hourly Weather History & Observations

Time (CDT) Temp. Heat Index Dew Point Humidity Pressure Visibility Wind Dir Wind Speed Gust Speed Precip Events Conditions
12:53 AM 57.9 °F - 53.1 °F 84% 30.04 in 10.0 mi South 6.9 mph - N/A   Clear
1:53 AM 59.0 °F - 53.1 °F 81% 30.04 in 10.0 mi South 5.8 mph - N/A   Clear
2:53 AM 57.0 °F - 52.0 °F 83% 30.06 in 10.0 mi South 5.8 mph - N/A   Clear
3:53 AM 57.0 °F - 53.1 °F 87% 30.06 in 10.0 mi South 5.8 mph - N/A   Clear
4:53 AM 55.9 °F - 53.1 °F 90% 30.09 in 10.0 mi Calm Calm - N/A   Clear
5:53 AM 54.0 °F - 53.1 °F 97% 30.11 in 10.0 mi Calm Calm - N/A   Clear
6:53 AM 52.0 °F - 51.1 °F 97% 30.14 in 10.0 mi Calm Calm - N/A   Clear
7:53 AM 52.0 °F - 52.0 °F 100% 30.16 in 7.0 mi Calm Calm - N/A   Clear
8:53 AM 61.0 °F - 57.0 °F 87% 30.17 in 10.0 mi SSE 4.6 mph - N/A   Clear
9:53 AM 66.9 °F - 57.0 °F 70% 30.16 in 10.0 mi South 12.7 mph - N/A   Clear
10:53 AM 73.9 °F - 57.0 °F 55% 30.15 in 10.0 mi SSW 11.5 mph - N/A   Clear
11:53 AM 77.0 °F - 57.0 °F 50% 30.14 in 10.0 mi South 11.5 mph - N/A   Clear
12:53 PM 79.0 °F - 57.0 °F 47% 30.14 in 10.0 mi South 10.4 mph - N/A   Clear
1:53 PM 80.1 °F 80.4 °F 57.0 °F 45% 30.11 in 10.0 mi SW 8.1 mph - N/A   Clear
2:53 PM 80.1 °F 80.2 °F 55.9 °F 43% 30.09 in 10.0 mi WSW 11.5 mph - N/A   Clear
3:53 PM 80.1 °F 80.1 °F 55.0 °F 42% 30.09 in 10.0 mi WSW 6.9 mph - N/A   Clear
4:53 PM 79.0 °F - 55.0 °F 44% 30.08 in 10.0 mi SW 9.2 mph - N/A   Clear
5:53 PM 77.0 °F - 55.9 °F 48% 30.09 in 10.0 mi South 9.2 mph - N/A   Clear
6:53 PM 72.0 °F - 57.0 °F 59% 30.09 in 10.0 mi South 3.5 mph - N/A   Clear
7:53 PM 70.0 °F - 61.0 °F 73% 30.11 in 10.0 mi North 4.6 mph - N/A   Overcast
8:53 PM 68.0 °F - 60.1 °F 76% 30.12 in 10.0 mi North 6.9 mph - N/A   Overcast
9:53 PM 66.0 °F - 59.0 °F 78% 30.13 in 10.0 mi North 5.8 mph - N/A   Overcast
10:53 PM 64.9 °F - 57.9 °F 78% 30.12 in 10.0 mi North 10.4 mph - N/A   Overcast
11:53 PM 64.0 °F - 57.0 °F 78% 30.10 in 10.0 mi Calm Calm - N/A   Overcast